Location: South Range
(44.4886°N, 65.7879°W)
Time: 14:54:07
(UTC-03:00)

Iridium 56 - Visible Passes

Search period start: 04 August 2015 00:00
Search period end: 14 August 2015 00:00
Orbit: 776 x 779 km, 86.4° (Epoch: 04 August)

Date Brightness Start Highest point End Pass type
(mag) Time Alt. Az. Time Alt. Az. Time Alt. Az.
04 Aug 5.5 22:49:05 31° SSE 22:51:31 67° E 22:56:43 10° N visible
05 Aug 7.9 00:29:36 10° WSW 00:32:53 16° WNW 00:35:58 10° NW visible
05 Aug 6.2 22:15:25 22° SE 22:18:06 37° E 22:22:54 10° NNE visible
05 Aug 7.2 23:55:52 16° SW 23:58:57 28° WNW 00:03:22 10° NNW visible
06 Aug 6.9 21:41:44 13° ESE 21:44:46 21° E 21:48:43 10° NNE visible
06 Aug 6.3 23:22:10 23° SSW 23:25:11 48° W 23:30:15 10° N visible
07 Aug 7.4 21:09:48 10° E 21:11:32 12° ENE 21:13:34 10° NE visible
07 Aug 5.5 22:48:28 25° S 22:51:35 87° W 22:56:51 10° N visible
08 Aug 8.2 00:31:34 10° W 00:33:17 11° WNW 00:34:41 10° NW visible
08 Aug 5.7 22:14:44 20° SSE 22:18:06 53° E 22:23:11 10° NNE visible
08 Aug 7.7 23:55:24 10° WSW 23:59:15 20° WNW 00:02:59 10° NNW visible
09 Aug 6.4 21:40:59 13° SE 21:44:43 30° E 21:49:15 10° NNE visible
09 Aug 6.9 23:21:26 14° SW 23:25:23 34° WNW 23:30:07 10° NNW visible
10 Aug 7.1 21:08:14 10° ESE 21:11:25 17° E 21:14:50 10° NE visible
10 Aug 5.9 22:47:39 17° SSW 22:51:42 61° W 22:56:53 10° N visible
11 Aug 5.4 22:13:49 15° S 22:18:08 76° E 22:23:22 10° N visible
11 Aug 8.1 23:56:44 10° WSW 23:59:37 14° WNW 00:02:15 10° NW visible
12 Aug 6.0 21:39:58 11° SSE 21:44:41 42° E 21:49:36 10° NNE visible
12 Aug 7.5 23:21:22 10° SW 23:25:39 25° WNW 23:29:51 10° NNW visible
13 Aug 6.7 21:07:18 10° SE 21:11:20 24° E 21:15:30 10° NNE visible
13 Aug 6.6 22:46:53 10° SSW 22:51:51 43° W 22:56:49 10° N visible
